• In Deutschland
  • Länderverzeichnis
  • Für 7 Tage
  • Wassertemperatur
  • Satellitenkarten
  • Wetterkarte
  • Widgets
  • user-avatar
    Anmelden

    Stündliche Wetter Neubrandenburg

    Heute, 11 Dezember, Montag

    Zeit Temperatur Niederschläge Wind Luftdruck Luftfeuchtigkeit
    00:00 -3°C° 0,6 mm 6 m/S 734 mmHg 89%
    01:00 -3°C° 0,6 mm 6 m/S 733 mmHg 91%
    02:00 -1°C° 0,4 mm 5 m/S 733 mmHg 91%
    03:00 0°C° 0,4 mm 5 m/S 733 mmHg 91%
    04:00 +1°C° 0,4 mm 5 m/S 733 mmHg 91%
    05:00 +1°C° 0,1 mm 5 m/S 733 mmHg 91%
    06:00 +1°C° 0,1 mm 5 m/S 734 mmHg 90%
    07:00 0°C° 0,1 mm 5 m/S 734 mmHg 89%
    08:00 0°C° 0 mm 4 m/S 735 mmHg 90%
    09:00 0°C° 0 mm 4 m/S 736 mmHg 91%
    10:00 0°C° 0 mm 4 m/S 737 mmHg 91%
    11:00 0°C° 0 mm 4 m/S 737 mmHg 91%
    12:00 0°C° 0 mm 4 m/S 738 mmHg 90%
    13:00 +1°C° 0 mm 3 m/S 738 mmHg 89%
    14:00 +1°C° 0 mm 3 m/S 738 mmHg 90%
    15:00 +1°C° 0 mm 2 m/S 738 mmHg 91%
    16:00 +2°C° 0 mm 1 m/S 738 mmHg 92%
    17:00 +1°C° 0,2 mm 2 m/S 738 mmHg 92%
    18:00 +1°C° 0,2 mm 2 m/S 738 mmHg 92%
    19:00 0°C° 0,2 mm 3 m/S 737 mmHg 92%
    20:00 +1°C° 0,3 mm 3 m/S 737 mmHg 92%
    21:00 +2°C° 0,3 mm 2 m/S 737 mmHg 93%
    22:00 +2°C° 0,3 mm 2 m/S 737 mmHg 94%
    23:00 +1°C° 0,2 mm 3 m/S 737 mmHg 94%

    Morgen, 12 Dezember, Dienstag

    Zeit Temperatur Niederschläge Wind Luftdruck Luftfeuchtigkeit
    00:00 +2°C° 0,2 mm 3 m/S 737 mmHg 94%
    01:00 +1°C° 0,2 mm 4 m/S 737 mmHg 95%
    02:00 +3°C° 0,1 mm 4 m/S 737 mmHg 93%
    03:00 +2°C° 0,1 mm 5 m/S 737 mmHg 91%
    04:00 +3°C° 0,1 mm 5 m/S 737 mmHg 89%
    05:00 +3°C° 0,1 mm 5 m/S 737 mmHg 87%
    06:00 +3°C° 0,1 mm 6 m/S 737 mmHg 85%
    07:00 +3°C° 0,1 mm 6 m/S 738 mmHg 84%
    08:00 +3°C° 0,1 mm 7 m/S 738 mmHg 84%
    09:00 +3°C° 0,1 mm 7 m/S 739 mmHg 85%
    10:00 +2°C° 0,1 mm 7 m/S 740 mmHg 85%
    11:00 +2°C° 0,2 mm 7 m/S 741 mmHg 85%
    12:00 +1°C° 0,2 mm 8 m/S 743 mmHg 85%
    13:00 +1°C° 0,2 mm 9 m/S 744 mmHg 85%
    14:00 +1°C° 0,3 mm 8 m/S 745 mmHg 85%
    15:00 0°C° 0,3 mm 7 m/S 746 mmHg 85%
    16:00 0°C° 0,3 mm 7 m/S 748 mmHg 85%
    17:00 0°C° 0,5 mm 7 m/S 749 mmHg 85%
    18:00 -1°C° 0,5 mm 7 m/S 750 mmHg 85%
    19:00 -1°C° 0,5 mm 7 m/S 751 mmHg 85%
    20:00 -1°C° 0,2 mm 6 m/S 752 mmHg 84%
    21:00 -1°C° 0,2 mm 6 m/S 753 mmHg 84%
    22:00 -1°C° 0,2 mm 6 m/S 754 mmHg 83%
    23:00 -1°C° 0 mm 6 m/S 755 mmHg 85%

    übermorgen, 13 Dezember, Mittwoch

    Zeit Temperatur Niederschläge Wind Luftdruck Luftfeuchtigkeit
    00:00 -1°C° 0 mm 6 m/S 755 mmHg 86%
    01:00 0°C° 0 mm 5 m/S 756 mmHg 88%
    02:00 -1°C° 0 mm 5 m/S 756 mmHg 89%
    03:00 -1°C° 0 mm 5 m/S 756 mmHg 90%
    04:00 -2°C° 0 mm 5 m/S 757 mmHg 91%
    05:00 -2°C° 0 mm 5 m/S 757 mmHg 91%
    06:00 -2°C° 0 mm 5 m/S 757 mmHg 91%
    07:00 -2°C° 0 mm 5 m/S 757 mmHg 91%
    08:00 -3°C° 0 mm 6 m/S 756 mmHg 89%
    09:00 -3°C° 0 mm 6 m/S 756 mmHg 88%
    10:00 -2°C° 0 mm 6 m/S 756 mmHg 86%
    11:00 -2°C° 0 mm 6 m/S 755 mmHg 85%
    12:00 -1°C° 0 mm 7 m/S 754 mmHg 84%
    13:00 -1°C° 0 mm 7 m/S 754 mmHg 82%
    14:00 -1°C° 0 mm 7 m/S 753 mmHg 82%
    15:00 -1°C° 0 mm 6 m/S 752 mmHg 82%
    16:00 -1°C° 0 mm 6 m/S 751 mmHg 82%
    17:00 -1°C° 0 mm 7 m/S 750 mmHg 80%
    18:00 -1°C° 0 mm 8 m/S 749 mmHg 78%
    19:00 0°C° 0 mm 8 m/S 748 mmHg 77%
    20:00 0°C° 0,3 mm 8 m/S 747 mmHg 79%
    21:00 0°C° 0,3 mm 8 m/S 747 mmHg 82%
    22:00 0°C° 0,3 mm 8 m/S 746 mmHg 85%
    23:00 0°C° 0,1 mm 7 m/S 746 mmHg 86%

    14 Dezember, Donnerstag

    Zeit Temperatur Niederschläge Wind Luftdruck Luftfeuchtigkeit
    00:00 0°C° 0,1 mm 7 m/S 745 mmHg 87%
    01:00 +2°C° 0,1 mm 6 m/S 745 mmHg 88%
    02:00 +2°C° 0,6 mm 7 m/S 744 mmHg 88%
    03:00 +2°C° 0,6 mm 7 m/S 744 mmHg 88%
    04:00 +2°C° 0,6 mm 7 m/S 743 mmHg 89%
    05:00 +2°C° 0,1 mm 6 m/S 743 mmHg 88%
    06:00 +1°C° 0,1 mm 6 m/S 743 mmHg 88%
    07:00 +1°C° 0,1 mm 6 m/S 743 mmHg 88%
    08:00 +1°C° 0,1 mm 6 m/S 743 mmHg 84%
    09:00 0°C° 0,1 mm 7 m/S 743 mmHg 81%
    10:00 0°C° 0,1 mm 7 m/S 744 mmHg 77%
    11:00 0°C° 0 mm 7 m/S 743 mmHg 76%
    12:00 +1°C° 0 mm 6 m/S 743 mmHg 75%
    13:00 +1°C° 0 mm 6 m/S 743 mmHg 73%
    14:00 +1°C° 0,6 mm 6 m/S 742 mmHg 76%
    15:00 +1°C° 0,6 mm 6 m/S 741 mmHg 78%
    16:00 +1°C° 0,6 mm 6 m/S 740 mmHg 81%
    17:00 +2°C° 0,8 mm 7 m/S 739 mmHg 82%
    18:00 +1°C° 0,8 mm 8 m/S 738 mmHg 82%
    19:00 +1°C° 0,8 mm 9 m/S 737 mmHg 83%
    20:00 0°C° 0,1 mm 7 m/S 737 mmHg 85%
    21:00 -1°C° 0,1 mm 6 m/S 738 mmHg 87%
    22:00 -1°C° 0,1 mm 4 m/S 738 mmHg 89%
    23:00 -1°C° 0 mm 4 m/S 738 mmHg 90%

    15 Dezember, Freitag

    Zeit Temperatur Niederschläge Wind Luftdruck Luftfeuchtigkeit
    00:00 -2°C° 0 mm 4 m/S 739 mmHg 90%
    01:00 -2°C° 0 mm 4 m/S 739 mmHg 91%
    02:00 -1°C° 0 mm 5 m/S 739 mmHg 89%
    03:00 -2°C° 0 mm 6 m/S 740 mmHg 88%
    04:00 -2°C° 0 mm 6 m/S 740 mmHg 86%
    05:00 -1°C° 0,3 mm 7 m/S 740 mmHg 86%
    06:00 -1°C° 0,3 mm 7 m/S 740 mmHg 86%
    07:00 -1°C° 0,3 mm 7 m/S 740 mmHg 85%
    08:00 -1°C° 0,3 mm 8 m/S 740 mmHg 85%
    09:00 0°C° 0,3 mm 8 m/S 741 mmHg 85%
    10:00 0°C° 0,3 mm 9 m/S 742 mmHg 84%
    11:00 +1°C° 0 mm 9 m/S 742 mmHg 84%
    12:00 +1°C° 0 mm 8 m/S 743 mmHg 84%
    13:00 +1°C° 0 mm 8 m/S 744 mmHg 84%
    14:00 0°C° 0 mm 7 m/S 745 mmHg 85%
    15:00 0°C° 0 mm 7 m/S 745 mmHg 86%
    16:00 +1°C° 0 mm 6 m/S 746 mmHg 87%
    17:00 +1°C° 0 mm 6 m/S 746 mmHg 87%
    18:00 -1°C° 0 mm 6 m/S 747 mmHg 88%
    19:00 -1°C° 0 mm 6 m/S 747 mmHg 88%
    20:00 -1°C° 0 mm 6 m/S 747 mmHg 88%
    21:00 -1°C° 0 mm 6 m/S 748 mmHg 88%
    22:00 -1°C° 0 mm 6 m/S 748 mmHg 89%
    23:00 -2°C° 0 mm 6 m/S 748 mmHg 89%

    16 Dezember, Samstag

    Zeit Temperatur Niederschläge Wind Luftdruck Luftfeuchtigkeit
    00:00 -1°C° 0 mm 5 m/S 749 mmHg 90%
    01:00 -1°C° 0 mm 5 m/S 749 mmHg 91%
    02:00 -1°C° 0 mm 5 m/S 749 mmHg 91%
    03:00 -2°C° 0 mm 5 m/S 749 mmHg 92%
    04:00 -2°C° 0 mm 5 m/S 749 mmHg 92%
    05:00 -2°C° 0 mm 5 m/S 749 mmHg 93%
    06:00 -2°C° 0 mm 4 m/S 749 mmHg 93%
    07:00 -2°C° 0 mm 4 m/S 750 mmHg 93%
    08:00 -2°C° 0 mm 4 m/S 750 mmHg 92%
    09:00 -2°C° 0 mm 4 m/S 750 mmHg 91%
    10:00 -1°C° 0 mm 5 m/S 751 mmHg 90%
    11:00 -1°C° 0 mm 4 m/S 751 mmHg 89%
    12:00 0°C° 0 mm 4 m/S 751 mmHg 87%
    13:00 0°C° 0 mm 4 m/S 751 mmHg 86%
    14:00 0°C° 0 mm 4 m/S 752 mmHg 88%
    15:00 -1°C° 0 mm 4 m/S 752 mmHg 90%
    16:00 -1°C° 0 mm 4 m/S 752 mmHg 92%
    17:00 -1°C° 0 mm 4 m/S 753 mmHg 93%
    18:00 -1°C° 0 mm 4 m/S 753 mmHg 93%
    19:00 -2°C° 0 mm 4 m/S 754 mmHg 93%
    20:00 -2°C° 0 mm 4 m/S 754 mmHg 93%
    21:00 -2°C° 0 mm 4 m/S 754 mmHg 94%
    22:00 -2°C° 0 mm 4 m/S 755 mmHg 94%
    23:00 -2°C° 0 mm 4 m/S 755 mmHg 94%
    Mehr zeigen